Satellite: AENEAS
Catalog number: 38760
Epoch time:      12339.81715136
Element set:    0004
Inclination:      064.6566 deg
RA of node:       149.5600 deg
Eccentricity:    0.0217100
Arg of perigee:   267.9065 deg
Mean anomaly:     089.7478 deg
Mean motion:   14.79727591 rev/day
Decay rate:     -1.995e-05 rev/day^2
Epoch rev:           00018
Checksum:              319

Satellite: CSSWE-D
Catalog number: 38761
Epoch time:      12340.22241455
Element set:    0005
Inclination:      064.6705 deg
RA of node:       148.3309 deg
Eccentricity:    0.0218659
Arg of perigee:   266.5967 deg
Mean anomaly:     091.0107 deg
Mean motion:   14.79611665 rev/day
Decay rate:      1.629e-05 rev/day^2
Epoch rev:           00026
Checksum:              292

Satellite: CXBN-E
Catalog number: 38762
Epoch time:      12339.94797608
Element set:    0004
Inclination:      064.6726 deg
RA of node:       149.1476 deg
Eccentricity:    0.0218367
Arg of perigee:   266.4636 deg
Mean anomaly:     091.1508 deg
Mean motion:   14.79725535 rev/day
Decay rate:      1.911e-05 rev/day^2
Epoch rev:           00029
Checksum:              325

Satellite: OBJECT F
Catalog number: 38763
Epoch time:      12339.94931602
Element set:    0004
Inclination:      064.6710 deg
RA of node:       149.1435 deg
Eccentricity:    0.0218896
Arg of perigee:   266.7609 deg
Mean anomaly:     090.8400 deg
Mean motion:   14.79641686 rev/day
Decay rate:      1.440e-05 rev/day^2
Epoch rev:           00023
Checksum:              299

Satellite: CINEMA-G
Catalog number: 38764
Epoch time:      12339.88054846
Element set:    0004
Inclination:      064.6699 deg
RA of node:       149.3424 deg
Eccentricity:    0.0218731
Arg of perigee:   266.7677 deg
Mean anomaly:     090.8397 deg
Mean motion:   14.79679288 rev/day
Decay rate:      1.554e-05 rev/day^2
Epoch rev:           00018
Checksum:              353

Satellite: CP5
Catalog number: 38765
Epoch time:      12339.94401684
Element set:    0004
Inclination:      064.6704 deg
RA of node:       149.1133 deg
Eccentricity:    0.0217718
Arg of perigee:   266.4723 deg
Mean anomaly:     091.1538 deg
Mean motion:   14.79809819 rev/day
Decay rate:      2.050e-05 rev/day^2
Epoch rev:           00019
Checksum:              305

Satellite: RAIKO
Catalog number: 38852
Epoch time:      12341.22106303
Element set:      68
Inclination:      051.6604 deg
RA of node:       345.8729 deg
Eccentricity:    0.0017850
Arg of perigee:   006.9381 deg
Mean anomaly:     353.1856 deg
Mean motion:   15.55823492 rev/day
Decay rate:     2.6178e-04 rev/day^2
Epoch rev:             966
Checksum:              303

Satellite: FITSAT 1
Catalog number: 38853
Epoch time:      12341.20386805
Element set:      65
Inclination:      051.6494 deg
RA of node:       345.7569 deg
Eccentricity:    0.0016211
Arg of perigee:   018.3948 deg
Mean anomaly:     341.7557 deg
Mean motion:   15.56694866 rev/day
Decay rate:     3.1294e-04 rev/day^2
Epoch rev:             971
Checksum:              325

Satellite: TechEdSat
Catalog number: 38854
Epoch time:      12341.23195451
Element set:      71
Inclination:      051.6477 deg
RA of node:       345.1927 deg
Eccentricity:    0.0016464
Arg of perigee:   022.3752 deg
Mean anomaly:     337.7953 deg
Mean motion:   15.58567952 rev/day
Decay rate:     4.4329e-04 rev/day^2
Epoch rev:             972
Checksum:              317

Satellite: F 1
Catalog number: 38855
Epoch time:      12341.23652595
Element set:      74
Inclination:      051.6498 deg
RA of node:       345.2212 deg
Eccentricity:    0.0016180
Arg of perigee:   021.2825 deg
Mean anomaly:     338.8811 deg
Mean motion:   15.58363567 rev/day
Decay rate:     4.2518e-04 rev/day^2
Epoch rev:             961
Checksum:              301

Satellite: WeWish
Catalog number: 38856
Epoch time:      12341.23296729
Element set:      82
Inclination:      051.6460 deg
RA of node:       344.4452 deg
Eccentricity:    0.0019401
Arg of perigee:   017.7350 deg
Mean anomaly:     342.4311 deg
Mean motion:   15.62230922 rev/day
Decay rate:     7.5333e-04 rev/day^2
Epoch rev:             962
Checksum:              272



Read previous mail | Read next mail


 01.05.2026 23:21:12lGo back Go up